星链-3593 (STARLINK-3593 )

导读 | 星芒AI

STARLINK-3593 是 SpaceX Starlink 卫星互联网项目中的第 3593 颗卫星,属于低轨卫星群的一部分,旨在为全球用户提供高速互联网服务。该卫星于 2024 年发射,运行在约 550 公里的轨道高度,采用先进的通信技术,支持宽带数据传输。Starlink 项目致力于改善偏远地区的网络接入,提升全球互联网覆盖。STARLINK-3593 的部署有助于增强星座的冗余性和服务稳定性。

基本信息
目录编号:
51896
目录名称:
STARLINK-3593
国际标识:
2022-022AW
轨道中心:
EARTH
卫星名称:
星链-3593
卫星全名:
星链-3593 (STARLINK-3593 )
卫星状态:
在轨 (已飞行1342 天)
发射日期:
2022-03-03 UTC
国别 :
美国 (US)
星等 :
--
轨道信息
数据来源 国际轨道数据
星历时间: 2025-11-04T18:17:44+0800
7小时前
查看轨道信息
半长轴: 6917.864km
偏心率: 0.00015
轨道倾角: 53.217°
近地点辐角 81.837°
升交点赤经 201.657°
平近点角 278.279°
近地点: 538.691km
远地点: 540.767km
周期: 95.437分钟
每日圈数: 15.088454
详细信息
固有亮度:
5
最大亮度:
2.5
卫星平台:
Starlink v1.5
覆盖范围:
全球
运营商:
太空探索技术公司
运营商所在国:
美国
制造商(研发单位):
太空探索技术公司
制造商所在国:
美国
使用方式:
暂无
卫星简介
星链(Starlink)计划是由太空探索技术公司(SpaceX)提出的一个巨型低轨卫星互联网星座项目,计划在2019年至2024年间在太空搭建由约1.2万颗卫星组成的“星链”网络,其中1584颗将部署在地球上空550千米处的近地轨道,并从2020年开始工作。该卫星仍在工作。
2D轨道图
3D轨道图
轨道高度分析图
轨道倾角分析图
轨道综合分析图
查看轨道综合分析图